Weather History for PASO - April, 2013

Change the Weather History Date:

Thursday, April 11, 2013

  Actual Average (PAHO) Record (PAHO)
Temperature  
Mean Temperature 20 °F -  
Max Temperature 26 °F 40 °F 57 °F (1997)
Min Temperature 15 °F 27 °F 7 °F (1985)
Degree Days  
Heating Degree Days 45    
Moisture  
Dew Point 8 °F    
Average Humidity 56    
Maximum Humidity 68    
Minimum Humidity 48    
Precipitation  
Precipitation 0.00 in - - ()
Sea Level Pressure  
Sea Level Pressure 30.03 in    
Wind  
Wind Speed 6 mph (NNE)    
Max Wind Speed 13 mph    
Max Gust Speed 22 mph    
Visibility 9 miles    
Events Snow    
Averages and records for this station are not official NWS values.
T = Trace of Precipitation, MM = Missing Value Source: NWS Daily Summary

Daily Weather History Graph

Daily Weather History Graph

Search for Another Location

Airport or City:

Trip Planner

Search our weather history database for the weather conditions in past years. The results will help you decide how hot, cold, wet, or windy it might be!

Date:

Astronomy

Apr. 11, 2013 Rise Set
Actual Time 7:02 AM AKDT 9:14 PM AKDT
Civil Twilight 6:17 AM AKDT 9:59 PM AKDT
Nautical Twilight 5:20 AM AKDT 10:57 PM AKDT
Astronomical Twilight 4:07 AM AKDT 12:12 AM AKDT
Moon 7:17 AM AKDT (4/11) 11:30 PM AKDT (4/11)
Length of Visible Light 15h 41m
Length of Day
14h 12m
New Moon, 2% of the Moon is Illuminated
Apr 11
New Moon
Apr 18
First Quarter
Apr 25
Full
May 2
Last Quarter
May 9
New

Hourly Weather History & Observations

Time (AKDT) Temp. Windchill Dew Point Humidity Pressure Visibility Wind Dir Wind Speed Gust Speed Precip Events Conditions
12:53 AM 19.9 °F 11.1 °F 6.1 °F 55% 30.00 in 10.0 mi South 6.9 mph - N/A   Overcast
1:53 AM 19.9 °F 11.1 °F 6.1 °F 55% 30.01 in 10.0 mi Variable 6.9 mph - N/A   Overcast
2:53 AM 19.9 °F - 5.0 °F 52% 30.02 in 10.0 mi Calm Calm - N/A   Overcast
3:53 AM 19.0 °F 13.9 °F 5.0 °F 54% 30.02 in 10.0 mi Variable 3.5 mph - N/A   Overcast
4:53 AM 19.0 °F 11.1 °F 6.1 °F 57% 30.02 in 10.0 mi Variable 5.8 mph - N/A   Overcast
5:53 AM 19.0 °F 11.1 °F 6.1 °F 57% 30.02 in 10.0 mi South 5.8 mph - N/A   Overcast
6:53 AM 18.0 °F 12.7 °F 5.0 °F 57% 30.01 in 10.0 mi South 3.5 mph - N/A   Partly Cloudy
7:53 AM 15.1 °F 9.4 °F 5.0 °F 64% 30.01 in 10.0 mi SSW 3.5 mph - N/A   Clear
8:53 AM 15.1 °F 9.4 °F 5.0 °F 64% 30.01 in 10.0 mi South 3.5 mph - N/A   Clear
9:42 AM 19.4 °F 11.5 °F 5.0 °F 54% 30.01 in 9.0 mi South 5.8 mph - N/A   Mostly Cloudy
9:53 AM 19.9 °F 14.9 °F 8.1 °F 60% 30.01 in 1.8 mi SSE 3.5 mph - 0.00 in Snow Light Snow
10:24 AM 19.4 °F 11.5 °F 10.4 °F 68% 30.01 in 3.0 mi South 5.8 mph - 0.00 in Snow Light Snow
10:53 AM 21.0 °F 16.2 °F 10.9 °F 65% 30.01 in 10.0 mi Variable 3.5 mph - 0.00 in   Overcast
11:35 AM 21.2 °F - 10.4 °F 63% 30.02 in 10.0 mi Calm Calm - N/A   Scattered Clouds
11:53 AM 24.1 °F - 8.1 °F 51% 30.02 in 10.0 mi Calm Calm - N/A   Scattered Clouds
12:53 PM 24.1 °F 16.0 °F 7.0 °F 48% 30.03 in 10.0 mi North 6.9 mph - N/A   Clear
1:53 PM 24.1 °F 15.2 °F 7.0 °F 48% 30.04 in 10.0 mi North 8.1 mph - N/A   Clear
2:53 PM 25.0 °F 16.3 °F 8.1 °F 49% 30.04 in 10.0 mi North 8.1 mph - N/A   Partly Cloudy
3:53 PM 25.0 °F 14.8 °F 8.1 °F 49% 30.04 in 10.0 mi North 10.4 mph - N/A   Mostly Cloudy
4:53 PM 25.0 °F 14.8 °F 12.9 °F 60% 30.04 in 10.0 mi North 10.4 mph 21.9 mph N/A   Overcast
5:53 PM 25.0 °F 14.2 °F 10.9 °F 55% 30.04 in 10.0 mi North 11.5 mph - N/A   Overcast
6:53 PM 25.0 °F 13.6 °F 12.0 °F 58% 30.05 in 10.0 mi North 12.7 mph 18.4 mph N/A   Overcast
7:53 PM 24.1 °F 13.1 °F 10.9 °F 57% 30.06 in 10.0 mi North 11.5 mph 20.7 mph N/A   Scattered Clouds
8:53 PM 24.1 °F 13.1 °F 9.0 °F 53% 30.07 in 10.0 mi North 11.5 mph - N/A   Partly Cloudy
9:53 PM 24.1 °F 12.5 °F 10.0 °F 55% 30.09 in 10.0 mi North 12.7 mph 20.7 mph N/A   Overcast
10:53 PM 23.0 °F 11.7 °F 10.0 °F 58% 30.11 in 10.0 mi North 11.5 mph 20.7 mph N/A   Mostly Cloudy
11:53 PM 23.0 °F 11.7 °F 9.0 °F 55% 30.12 in 10.0 mi NNE 11.5 mph - N/A   Clear